Location: Godzisko
(49.9648°N, 19.4576°E)
Time: 02:03:01
(UTC+00:00)

AQUA - Pass Details

Date: 20 April 2021
Orbit: 701 x 704 km, 98.2° (Epoch: 15 May)

Event Time Altitude Azimuth Distance (km) Brightness Sun altitude
Rises 00:36:05 0° 16° (NNE) 3,102 8.4 -23.6°
Reaches altitude 10° 00:38:22 10° 19° (NNE) 2,179 7.4 -23.4°
Maximum altitude 00:43:07 69° 102° (ESE) 754 3.9 -23.0°
Enters shadow 00:44:07 53° 162° (SSE) 866 4.0 -22.9°
